(201183) = 2002 PV42

Discovered at Palomar on 2002-08-07 by NEAT.

Orbit

Orbit type: Main Belt

Note: WebGL enabled browser required.

epoch2024-03-31.0
epoch JD2460400.5
perihelion date2019-12-23.48959
perihelion JD2458840.98959
argument of perihelion (°)256.27717
ascending node (°)139.10413
inclination (°)22.59448
eccentricity0.2199688
perihelion distance (AU)2.4274401
Tisserand w.r.t. Jupiter3.1
ΔV w.r.t. Earth (km/sec)11.9
semimajor axis (AU)3.1119783
mean anomaly (°)279.98663
mean daily motion (°/day)0.17953500
aphelion distance (AU)3.797
period (years)5.49
P-vector [x]0.76650221
P-vector [y]0.62799144
P-vector [z]-0.13454041
Q-vector [x]-0.59093544
Q-vector [y]0.77166584
Q-vector [z]0.23521723
absolute magnitude15.21
phase slope0.15
uncertainty0
referenceMPEC 2024-E02
observations used593
oppositions15
arc length (days)7686
first opposition used2002
last opposition used2023
residual rms (arc-secs)0.78
perturbers coarse indicatorM-v
perturbers precise indicator003Ek
first observation date used2002-07-09.0
last observation date used2023-07-25.0
computer nameMPCLINUX
JD of orbit computation2456639.634829
perihelion JD uncertainty (days)1.9349E-04
argument of perihelion uncertainty (°)3.7692E-05
ascending node uncertainty (°)1.8678E-05
inclination uncertainty (°)1.3236E-05
eccentricity uncertainty 6.3585E-08
perihelion distance uncertainty (AU)1.9654E-07
Minimum Orbit Intersection Distances (in AU)
for orbit epoch: 2460400.5, reference: E2024-E02
Mercury2.11582
Venus1.75821
Earth1.54026
Mars1.19091
Jupiter2.07012
Saturn5.97868
Uranus14.9756
Neptune27.076

Observations

608 total observations over interval: 2002 07 09.31293 – 2023 07 25.307420
These data are available for download (format description).

Date (UT) J2000 RA J2000 Dec Magn Location Ref
2002 07 09.31293 21 33 27.20 -08 46 56.8 19.1   704 – Lincoln Laboratory ETS, New Mexico MPS 61317
2002 07 09.33806 21 33 26.74 -08 47 08.1 19.5   704 – Lincoln Laboratory ETS, New Mexico MPS 61317
2002 07 09.35059 21 33 26.44 -08 47 13.2 19.6   704 – Lincoln Laboratory ETS, New Mexico MPS 61317
2002 07 09.36318 21 33 26.25 -08 47 19.3 20.0   704 – Lincoln Laboratory ETS, New Mexico MPS 61317
2002 08 07.39483 21 16 47.04 -13 26 47.0 18.3   644 – Palomar Mountain/NEAT MPS 60180
2002 08 07.41349 21 16 46.17 -13 26 59.8 18.4   644 – Palomar Mountain/NEAT MPS 60180
2002 08 07.43229 21 16 45.30 -13 27 12.3 18.7   644 – Palomar Mountain/NEAT MPS 60180
2002 08 11.42552 21 13 46.03 -14 12 43.5 18.8   644 – Palomar Mountain/NEAT MPS 60180
2002 08 11.43623 21 13 45.54 -14 12 50.9 18.8   644 – Palomar Mountain/NEAT MPS 60180
2002 08 11.44696 21 13 44.99 -14 12 59.0 18.2   644 – Palomar Mountain/NEAT MPS 60180
2002 08 12.47325 21 12 58.75 -14 24 42.5 20.4   608 – Haleakala-AMOS MPS 60180
2002 08 12.48398 21 12 58.24 -14 24 50.2 20.5   608 – Haleakala-AMOS MPS 60180
2002 08 12.49493 21 12 57.78 -14 24 58.0 19.9   608 – Haleakala-AMOS MPS 60180
2002 08 13.25912 21 12 23.47 -14 33 45.6 19.3 V 291 – LPL/Spacewatch II MPS 60180
2002 08 13.27950 21 12 22.52 -14 33 59.8 19.4 V 291 – LPL/Spacewatch II MPS 60180
2002 08 13.30025 21 12 21.55 -14 34 14.2 19.3 V 291 – LPL/Spacewatch II MPS 60180
2002 08 14.23091 21 11 39.66 -14 44 55.0 18.2   704 – Lincoln Laboratory ETS, New Mexico MPS 60180
2002 08 14.24659 21 11 39.00 -14 45 05.2 19.0   704 – Lincoln Laboratory ETS, New Mexico MPS 60180
2002 08 14.26231 21 11 38.17 -14 45 16.9 18.9   704 – Lincoln Laboratory ETS, New Mexico MPS 60180
2002 08 14.27797 21 11 37.56 -14 45 29.4 19.2   704 – Lincoln Laboratory ETS, New Mexico MPS 60180
2002 08 14.29362 21 11 36.77 -14 45 38.2 19.0   704 – Lincoln Laboratory ETS, New Mexico MPS 60180
2002 08 16.26739 21 10 08.19 -15 08 16.9 19.6 V 291 – LPL/Spacewatch II MPS 60180
2002 08 16.28830 21 10 07.22 -15 08 31.3 19.5 V 291 – LPL/Spacewatch II MPS 60180
2002 08 16.30963 21 10 06.23 -15 08 46.1 19.4 V 291 – LPL/Spacewatch II MPS 60180
2002 08 27.23274 21 02 22.70 -17 11 03.5 18.5   644 – Palomar Mountain/NEAT MPS 61317
2002 08 27.23501 21 02 22.60 -17 11 05.0 19.0   644 – Palomar Mountain/NEAT MPS 61317
2002 08 27.25384 21 02 21.82 -17 11 17.4 18.9   644 – Palomar Mountain/NEAT MPS 61317
2002 08 27.25613 21 02 21.72 -17 11 18.7 18.9   644 – Palomar Mountain/NEAT MPS 61317
2002 08 27.28424 21 02 20.54 -17 11 37.4 18.4   644 – Palomar Mountain/NEAT MPS 61317
2002 08 27.29133 21 02 20.32 -17 11 41.5 19.0   644 – Palomar Mountain/NEAT MPS 61317
2002 08 29.27413 21 01 04.31 -17 32 52.4 19.5   644 – Palomar Mountain/NEAT MPS 61317
2002 08 29.29532 21 01 03.49 -17 33 06.0 19.8   644 – Palomar Mountain/NEAT MPS 61317
2002 08 29.31624 21 01 02.66 -17 33 19.1 19.7   644 – Palomar Mountain/NEAT MPS 61317
2002 09 01.23700 20 59 17.15 -18 03 45.5 18.7 R 699 – Lowell Observatory-LONEOS MPS 61317
2002 09 01.25460 20 59 16.59 -18 03 56.4   699 – Lowell Observatory-LONEOS MPS 61317
2002 09 01.27217 20 59 16.01 -18 04 06.9   699 – Lowell Observatory-LONEOS MPS 61317
2002 09 01.28975 20 59 15.35 -18 04 17.4   699 – Lowell Observatory-LONEOS MPS 61317
2003 12 13.26620 06 06 09.59 -05 07 18.7 18.9   704 – Lincoln Laboratory ETS, New Mexico MPS 96596
2003 12 13.27941 06 06 08.91 -05 07 17.0 19.2   704 – Lincoln Laboratory ETS, New Mexico MPS 96596
2003 12 13.29267 06 06 08.12 -05 07 13.9 19.2   704 – Lincoln Laboratory ETS, New Mexico MPS 96596
2003 12 13.30607 06 06 07.38 -05 07 11.2 19.1   704 – Lincoln Laboratory ETS, New Mexico MPS 96596
2003 12 13.31908 06 06 06.68 -05 07 08.3 19.6   704 – Lincoln Laboratory ETS, New Mexico MPS 96596
2004 01 12.27964 05 41 50.64 -01 24 00.9 19.5   644 – Palomar Mountain/NEAT MPS 96596
2004 01 12.30059 05 41 49.81 -01 23 47.7 19.4   644 – Palomar Mountain/NEAT MPS 96596
2004 01 12.32137 05 41 49.00 -01 23 34.5 19.5   644 – Palomar Mountain/NEAT MPS 96596
2004 02 18.15928 05 35 22.62 +05 40 56.3 19.8   704 – Lincoln Laboratory ETS, New Mexico MPS 98750
2004 02 18.17299 05 35 22.91 +05 41 05.3 20.2   704 – Lincoln Laboratory ETS, New Mexico MPS 98750
2004 02 18.18628 05 35 23.13 +05 41 13.9 20.4   704 – Lincoln Laboratory ETS, New Mexico MPS 98750
2004 02 18.21390 05 35 23.60 +05 41 32.2 19.8   704 – Lincoln Laboratory ETS, New Mexico MPS 98750
2005 03 11.22831 11 28 14.74 +19 27 19.4 18.9 R 703 – Catalina Sky Survey MPS 127887
2005 03 11.23382 11 28 14.43 +19 27 21.8 19.6 R 703 – Catalina Sky Survey MPS 127887
2005 03 11.23934 11 28 14.06 +19 27 24.8 19.7 R 703 – Catalina Sky Survey MPS 127887
2005 03 11.24487 11 28 13.91 +19 27 28.6 20.0 R 703 – Catalina Sky Survey MPS 127887
2008 09 27.60962 01 44 48.55 -20 56 07.1 18.7 V E12 – Siding Spring Survey MPS 257819
2008 09 27.61248 01 44 48.48 -20 56 09.1 18.7 V E12 – Siding Spring Survey MPS 257819
2008 09 27.61538 01 44 48.37 -20 56 11.1 18.7 V E12 – Siding Spring Survey MPS 257819
2008 09 27.61822 01 44 48.26 -20 56 13.5 18.8 V E12 – Siding Spring Survey MPS 257819
2008 10 24.66988 01 27 47.37 -24 53 06.7 18.8 V E12 – Siding Spring Survey MPS 261367
2008 10 24.69601 01 27 46.26 -24 53 12.5 18.9 V E12 – Siding Spring Survey MPS 261367
2008 12 04.14266 01 16 15.78 -22 46 45.8 20.0 V 703 – Catalina Sky Survey MPS 267425
2008 12 04.14990 01 16 15.85 -22 46 41.3 19.9 V 703 – Catalina Sky Survey MPS 267425
2008 12 04.15715 01 16 16.03 -22 46 38.0 19.7 V 703 – Catalina Sky Survey MPS 267425
2008 12 04.16432 01 16 15.99 -22 46 32.6 19.4 V 703 – Catalina Sky Survey MPS 267425
2010 01 08.34060 09 22 32.99 +09 34 17.0 19.7 V 691 – Steward Observatory, Kitt Peak-Spacewatch MPS 310072
2010 01 08.35824 09 22 32.41 +09 34 24.7 19.9 V 691 – Steward Observatory, Kitt Peak-Spacewatch MPS 310072
2010 01 08.37589 09 22 31.83 +09 34 32.5 19.9 V 691 – Steward Observatory, Kitt Peak-Spacewatch MPS 310072
2010 01 10.36056 09 21 24.89 +09 50 05.5 20.2   704 – Lincoln Laboratory ETS, New Mexico MPS 311100
2010 01 10.37338 09 21 24.46 +09 50 11.1 19.9   704 – Lincoln Laboratory ETS, New Mexico MPS 311100
2010 01 10.38620 09 21 24.01 +09 50 18.2 19.9   704 – Lincoln Laboratory ETS, New Mexico MPS 311100
2010 01 11.28108 09 20 52.46 +09 57 29.3 20.0 V 691 – Steward Observatory, Kitt Peak-Spacewatch MPS 311100
2010 01 11.30268 09 20 51.66 +09 57 39.9 19.9 V 691 – Steward Observatory, Kitt Peak-Spacewatch MPS 311100
2010 01 11.32042 09 20 50.97 +09 57 48.4 19.8 V 691 – Steward Observatory, Kitt Peak-Spacewatch MPS 311100
2010 01 15.31808 09 18 19.87 +10 31 19.7 20.0 V 691 – Steward Observatory, Kitt Peak-Spacewatch MPS 311100
2010 01 15.33579 09 18 19.06 +10 31 27.4 19.6 V 691 – Steward Observatory, Kitt Peak-Spacewatch MPS 311100
2010 01 15.35350 09 18 18.38 +10 31 38.6 19.7 V 691 – Steward Observatory, Kitt Peak-Spacewatch MPS 311100
2010 02 05.25120 09 02 24.97 +13 49 31.2 19.5 V 703 – Catalina Sky Survey MPS 316486
2010 02 05.25643 09 02 24.68 +13 49 34.5 19.0 V 703 – Catalina Sky Survey MPS 316486
2010 02 05.26164 09 02 24.39 +13 49 36.5 18.8 V 703 – Catalina Sky Survey MPS 316486
2010 02 05.26688 09 02 24.18 +13 49 38.5 19.2 V 703 – Catalina Sky Survey MPS 316486
2010 02 13.32122 08 56 06.90 +15 07 43.8 19.4 V G96 – Mt. Lemmon Survey MPS 316486
2010 02 13.32720 08 56 06.61 +15 07 47.1 19.4 V G96 – Mt. Lemmon Survey MPS 316486
2010 02 13.33919 08 56 06.03 +15 07 54.1 19.5 V G96 – Mt. Lemmon Survey MPS 316486
2010 02 14.31300 08 55 22.40 +15 17 07.0 19.6 V 703 – Catalina Sky Survey MPS 316486
2010 02 14.32051 08 55 21.97 +15 17 10.1 19.0 V 703 – Catalina Sky Survey MPS 316486
2010 02 14.32803 08 55 21.72 +15 17 16.7 19.4 V 703 – Catalina Sky Survey MPS 316486
2010 02 17.21801 08 53 15.87 +15 44 12.4 19.7   704 – Lincoln Laboratory ETS, New Mexico MPS 316486
2010 02 17.24253 08 53 14.85 +15 44 25.3 19.6   704 – Lincoln Laboratory ETS, New Mexico MPS 316486
2010 02 17.25464 08 53 14.31 +15 44 31.9 19.6   704 – Lincoln Laboratory ETS, New Mexico MPS 316486
2010 02 17.26687 08 53 13.77 +15 44 39.1 19.5   704 – Lincoln Laboratory ETS, New Mexico MPS 316486
2010 03 14.21147 08 40 50.98 +18 58 19.4 20.1 V G96 – Mt. Lemmon Survey MPS 319142
